, AK

(GMT )
Portage Glacier

Weather History for PATO - May, 2014

Change the Weather History Date:

Friday, May 16, 2014

  Actual Average Record
Temperature  
Mean Temperature 52 °F -  
Max Temperature 71 °F - - ()
Min Temperature 33 °F - - ()
Degree Days  
Heating Degree Days 14    
Growing Degree Days 2 (Base 50)    
Moisture  
Dew Point 33 °F    
Average Humidity 54    
Maximum Humidity 92    
Minimum Humidity 22    
Precipitation  
Precipitation 0.00 in - - ()
Sea Level Pressure  
Sea Level Pressure 30.16 in    
Wind  
Wind Speed 3 mph (SW)    
Max Wind Speed 9 mph    
Max Gust Speed 16 mph    
Visibility 10 miles    
Events      
Averages and records for this station are not official NWS values.
T = Trace of Precipitation, MM = Missing Value Source: NWS Daily Summary

Daily Weather History Graph

Daily Weather History Graph

Search for Another Location

Airport or City:

Astronomy

May. 16, 2014 Rise Set
Actual Time 5:08 AM AKDT 10:36 PM AKDT
Civil Twilight 3:59 AM AKDT 11:46 PM AKDT
Nautical Twilight 2:24 AM AKDT 1:19 AM AKDT
Astronomical Twilight Sun does not set Sun does not set
Moon No Moon Rise 7:01 AM AKDT (5/16)
Length of Visible Light 19h 46m
Length of Day
17h 27m
Waning Gibbous, 95% of the Moon is Illuminated
May 16
Waning Gibbous
May 21
Last Quarter
May 28
New
Jun 5
First Quarter
Jun 12
Full

Hourly Weather History & Observations

Time (AKDT) Temp. Windchill Dew Point Humidity Pressure Visibility Wind Dir Wind Speed Gust Speed Precip Events Conditions
12:53 AM 44.1 °F 42.5 °F 33.1 °F 65% 30.27 in 10.0 mi East 3.5 mph - N/A   Clear
1:53 AM 39.0 °F - 32.0 °F 76% 30.27 in 10.0 mi Calm Calm - N/A   Clear
2:53 AM 39.0 °F 36.8 °F 33.1 °F 79% 30.27 in 10.0 mi SE 3.5 mph - N/A   Clear
3:53 AM 36.0 °F - 32.0 °F 86% 30.26 in 10.0 mi Calm Calm - N/A   Clear
4:53 AM 36.0 °F - 32.0 °F 86% 30.25 in 10.0 mi Calm Calm - N/A   Clear
5:53 AM 33.1 °F 30.0 °F 30.9 °F 92% 30.25 in 10.0 mi SE 3.5 mph - N/A   Clear
6:53 AM 35.1 °F - 33.1 °F 92% 30.24 in 10.0 mi Calm Calm - N/A   Clear
7:53 AM 43.0 °F - 36.0 °F 76% 30.23 in 10.0 mi Calm Calm - N/A   Clear
8:53 AM 46.9 °F - 36.0 °F 66% 30.22 in 10.0 mi Calm Calm - N/A   Clear
9:53 AM 53.1 °F - 37.0 °F 55% 30.21 in 10.0 mi Calm Calm - N/A   Clear
10:53 AM 57.0 °F - 36.0 °F 45% 30.19 in 10.0 mi Variable 3.5 mph - N/A   Clear
12:53 PM 64.9 °F - 26.1 °F 23% 30.16 in 10.0 mi WNW 8.1 mph - N/A   Clear
1:53 PM 66.9 °F - 27.0 °F 22% 30.14 in 10.0 mi West 8.1 mph - N/A   Clear
2:53 PM 69.1 °F - 30.0 °F 23% 30.12 in 10.0 mi Variable 6.9 mph - N/A   Clear
3:53 PM 70.0 °F - 30.0 °F 23% 30.10 in 10.0 mi West 8.1 mph - N/A   Clear
4:53 PM 70.0 °F - 30.9 °F 24% 30.08 in 10.0 mi West 6.9 mph - N/A   Clear
5:53 PM 70.0 °F - 33.1 °F 26% 30.06 in 10.0 mi West 9.2 mph 16.1 mph N/A   Clear
6:53 PM 70.0 °F - 39.0 °F 32% 30.05 in 10.0 mi WSW 4.6 mph - N/A   Clear
7:53 PM 63.0 °F - 35.1 °F 35% 30.04 in 10.0 mi Calm Calm - N/A   Clear
8:53 PM 60.1 °F - 36.0 °F 41% 30.05 in 10.0 mi Calm Calm - N/A   Clear
9:53 PM 54.0 °F - 35.1 °F 49% 30.06 in 10.0 mi ESE 4.6 mph - N/A   Clear
10:53 PM 48.0 °F - 37.0 °F 66% 30.06 in 10.0 mi Calm Calm - N/A   Clear
11:53 PM 45.0 °F - 36.0 °F 71% 30.06 in 10.0 mi Calm Calm - N/A   Clear